Location: Elko Observing site
(32.3606°N, 83.7235°W)
Time: 19:45:51
(UTC-04:00)

N. Korean satellite - Visible Passes

Search period start: 21 March 2019 00:00
Search period end: 31 March 2019 00:00
Orbit: 456 x 510 km, 97.2° (Epoch: 20 March)

Date Brightness Start Highest point End Pass type
(mag) Time Alt. Az. Time Alt. Az. Time Alt. Az.
22 Mar 9.5 07:01:35 10° NE 07:04:27 22° E 07:07:20 10° SSE visible
23 Mar 10.5 06:38:56 10° E 06:39:31 10° E 06:40:06 10° ESE visible
26 Mar 9.7 06:55:54 10° NE 06:58:34 19° E 07:01:13 10° SE visible
30 Mar 9.8 06:50:15 10° NE 06:52:38 16° E 06:55:00 10° SE visible
